Stations météo

réclame
Mon MeteoGroup
Katterjakk A, Suède (2019): Température de l'air & dewpoint: 11.12.2017 22:00:00 - 17.12.2017 22:00:00 (CET)Katterjakk A, Suède (2019): reduced air pressure: 11.12.2017 22:00:00 - 17.12.2017 22:00:00 (CET)Katterjakk A, Suède (2019): visibility: 11.12.2017 22:00:00 - 17.12.2017 22:00:00 (CET)Katterjakk A, Suède (2019): Quantités de précipitations: 11.12.2017 22:00:00 - 17.12.2017 22:00:00 (CET)
Date & Time tt [°C] td [°C] ppp [hPa] vv [km] rr [mm]
17.12.2017 22:00:00 - - - - -
17.12.2017 21:00:00 -7,5 -8,4 1001,3 27 0,4
17.12.2017 20:00:00 -8,2 -9,3 1001,0 1,3 0,3
17.12.2017 19:00:00 -8,3 -9,4 1000,4 0,8 0,4
17.12.2017 18:00:00 -8,3 -9,4 999,9 6 0,0
17.12.2017 17:00:00 -8,1 -9,2 999,6 1,0 0,0
17.12.2017 16:00:00 -7,5 -8,3 999,4 0,5 0,0
17.12.2017 15:00:00 -8,3 -9,5 999,6 29 0,0
17.12.2017 14:00:00 -6,9 -8,3 999,6 50 0,0
17.12.2017 13:00:00 -6,7 -7,9 999,9 50 0,0
17.12.2017 12:00:00 -7,1 -8,0 1000,3 50 0,0
17.12.2017 11:00:00 -5,7 -6,6 1000,3 50 0,0
17.12.2017 10:00:00 -3,9 -4,6 1000,1 18 0,0
17.12.2017 09:00:00 -3,5 -4,2 999,7 26 0,3
17.12.2017 08:00:00 -4,6 -5,4 999,7 36 0,6
17.12.2017 07:00:00 -10,6 -11,9 1000,6 0,7 0,5
17.12.2017 06:00:00 -11,1 -12,4 1000,3 6 0,2
17.12.2017 05:00:00 -11,6 -13,0 1000,6 2,5 0,5
17.12.2017 04:00:00 -11,9 -13,3 1000,7 0,9 0,0
17.12.2017 03:00:00 -12,2 -13,6 1000,6 6 0,1
17.12.2017 02:00:00 -12,2 -13,6 1000,7 3,0 0,8
17.12.2017 01:00:00 -12,3 -13,7 1000,5 0,8 0,2
17.12.2017 00:00:00 -12,3 -13,7 1000,4 1,3 0,0
16.12.2017 23:00:00 -11,6 -13,0 1000,5 1,2 0,0
16.12.2017 22:00:00 -11,3 -12,6 1000,4 0,3 0,0
16.12.2017 21:00:00 -11,9 -13,3 1000,5 0,5 0,1
16.12.2017 20:00:00 -10,9 -12,2 1000,6 0,3 0,0
16.12.2017 19:00:00 -11,3 -12,6 1000,6 8 0,1
16.12.2017 18:00:00 -11,5 -12,8 1000,7 11 0,0
16.12.2017 17:00:00 -12,3 -13,9 1000,4 50 0,0
16.12.2017 16:00:00 -10,8 -12,3 1000,2 7 0,0
16.12.2017 15:00:00 -10,1 -11,4 999,8 3,9 0,0
16.12.2017 14:00:00 -10,1 -11,4 999,7 10 0,0
16.12.2017 13:00:00 -10,0 -11,3 999,6 7 0,0
16.12.2017 12:00:00 -9,3 -10,5 999,2 30 0,0
16.12.2017 11:00:00 -9,6 -10,8 999,1 50 0,0
16.12.2017 10:00:00 -9,8 -11,0 998,8 1,0 0,0
16.12.2017 09:00:00 -11,9 -13,3 998,4 25 0,0
16.12.2017 08:00:00 -11,1 -12,4 997,8 50 0,0
16.12.2017 07:00:00 -9,9 -11,1 997,3 50 0,0
16.12.2017 06:00:00 -10,6 -11,9 997,0 50 0,0
16.12.2017 05:00:00 -10,8 -12,1 997,0 50 0,0
16.12.2017 04:00:00 -12,0 -13,6 996,9 50 0,0
16.12.2017 03:00:00 -10,0 -11,3 996,6 50 0,0
16.12.2017 02:00:00 -10,8 -12,3 996,5 50 0,0
16.12.2017 01:00:00 -10,7 -12,0 996,3 43 0,0
16.12.2017 00:00:00 -10,0 -11,2 996,2 50 0,0
15.12.2017 23:00:00 -12,2 -13,9 996,1 50 0,0
15.12.2017 22:00:00 -11,1 -12,6 996,0 50 0,0
15.12.2017 21:00:00 -12,1 -13,5 995,9 50 0,0
15.12.2017 20:00:00 -12,3 -13,9 995,7 46 0,1
15.12.2017 19:00:00 -10,6 -11,8 995,3 45 0,0
15.12.2017 18:00:00 -10,4 -11,7 995,3 16 0,0
15.12.2017 17:00:00 -9,3 -10,5 995,0 8 0,0
15.12.2017 16:00:00 -10,6 -11,9 995,0 43 0,0
15.12.2017 15:00:00 -10,7 -12,0 994,7 50 0,0
15.12.2017 14:00:00 -11,2 -12,7 994,6 49 0,0
15.12.2017 13:00:00 -11,1 -12,4 994,6 43 0,1
15.12.2017 12:00:00 -10,3 -11,5 994,4 6 0,0
15.12.2017 11:00:00 -11,5 -12,9 994,4 29 0,1
15.12.2017 10:00:00 -12,1 -13,5 994,3 0,9 0,1
15.12.2017 09:00:00 -11,9 -13,3 994,0 13 0,0
15.12.2017 08:00:00 -11,2 -12,5 993,3 1,4 0,0
15.12.2017 07:00:00 -10,9 -12,2 992,8 50 0,0
15.12.2017 06:00:00 -10,5 -11,7 992,5 5 0,0
15.12.2017 05:00:00 -10,1 -11,3 992,0 1,6 0,0
15.12.2017 04:00:00 -11,2 -12,5 991,9 2,8 0,0
15.12.2017 03:00:00 -10,5 -11,8 991,6 50 0,0
15.12.2017 02:00:00 -10,8 -12,1 991,7 49 0,0
15.12.2017 01:00:00 -10,6 -11,9 991,4 6 0,0
15.12.2017 00:00:00 -11,2 -12,5 991,5 50 0,0
14.12.2017 23:00:00 -10,9 -12,2 991,1 46 0,0
14.12.2017 22:00:00 -12,8 -14,2 991,3 50 0,0
14.12.2017 21:00:00 -12,1 -13,4 991,1 50 0,0
14.12.2017 20:00:00 -12,0 -13,6 990,8 50 0,0
14.12.2017 19:00:00 -11,4 -13,9 990,5 50 0,0
14.12.2017 18:00:00 -11,0 -13,6 990,2 50 0,0
14.12.2017 17:00:00 -8,5 -12,0 989,3 50 0,0
14.12.2017 16:00:00 -6,9 -10,9 988,8 50 0,0
14.12.2017 15:00:00 -6,9 -11,4 988,5 50 0,0
14.12.2017 14:00:00 -5,4 -10,2 988,0 50 0,0
14.12.2017 13:00:00 -6,0 -10,6 987,6 50 0,0
14.12.2017 12:00:00 -5,9 -10,5 987,1 50 0,0
14.12.2017 11:00:00 -5,8 -10,2 986,7 50 0,0
14.12.2017 10:00:00 -2,8 -7,5 985,6 50 0,0
14.12.2017 09:00:00 -3,0 -7,7 985,0 50 0,0
14.12.2017 08:00:00 -3,5 -8,4 984,3 50 0,0
14.12.2017 07:00:00 -4,4 -9,2 983,8 50 0,0
14.12.2017 06:00:00 -5,9 -9,6 983,6 50 0,0
14.12.2017 05:00:00 -6,2 -8,8 983,4 50 0,0
14.12.2017 04:00:00 -4,5 -6,9 982,8 50 0,0
14.12.2017 03:00:00 -3,7 -6,0 982,1 50 0,0
14.12.2017 02:00:00 -3,4 -5,3 981,6 50 0,0
14.12.2017 01:00:00 -3,6 -5,4 981,2 50 0,0
14.12.2017 00:00:00 -3,4 -4,7 980,6 50 0,0
13.12.2017 23:00:00 -4,2 -5,2 980,4 50 0,0
13.12.2017 22:00:00 -4,5 -5,2 980,0 21 0,0
13.12.2017 21:00:00 -4,7 -5,5 979,8 50 0,0
13.12.2017 20:00:00 -4,8 -5,8 979,7 48 0,2
13.12.2017 19:00:00 -4,7 -5,8 979,8 24 0,1
13.12.2017 18:00:00 -5,5 -6,3 979,7 0,5 1,1
13.12.2017 17:00:00 -5,1 -6,4 979,6 1,4 0,5
13.12.2017 16:00:00 -5,4 -6,9 980,1 1,0 0,5
13.12.2017 15:00:00 -5,5 -7,7 980,1 3,4 -
13.12.2017 14:00:00 - - - - -
13.12.2017 13:00:00 -6,8 -9,8 980,8 8 0,0
13.12.2017 12:00:00 -6,7 -10,2 981,0 50 0,0
13.12.2017 11:00:00 -6,6 -10,6 981,7 41 0,0
13.12.2017 10:00:00 -8,0 -12,2 982,3 50 0,0
13.12.2017 09:00:00 -7,6 -10,4 982,8 50 0,0
13.12.2017 08:00:00 -8,2 -11,7 983,3 50 0,0
13.12.2017 07:00:00 -7,6 -11,8 983,6 50 0,0
13.12.2017 06:00:00 -8,0 -12,3 984,4 50 0,0
13.12.2017 05:00:00 -8,1 -12,6 985,1 50 0,0
13.12.2017 04:00:00 -8,7 -13,0 985,8 50 0,0
13.12.2017 03:00:00 -10,6 -13,7 986,9 50 0,0
13.12.2017 02:00:00 -10,8 -14,0 987,8 50 0,0
13.12.2017 01:00:00 -11,1 -14,2 989,1 50 0,0
13.12.2017 00:00:00 -11,0 -13,9 990,1 50 0,0
12.12.2017 23:00:00 -11,7 -14,9 991,3 50 0,0
12.12.2017 22:00:00 -11,4 -14,5 992,1 50 0,0
12.12.2017 21:00:00 -12,5 -15,1 993,1 50 0,0
12.12.2017 20:00:00 -12,5 -15,5 994,1 50 0,0
12.12.2017 19:00:00 -13,9 -16,3 995,1 50 0,0
12.12.2017 18:00:00 -12,7 -16,5 995,4 50 0,0
12.12.2017 17:00:00 -13,3 -15,7 996,1 50 0,0
12.12.2017 16:00:00 -13,9 -16,2 996,7 50 0,0
12.12.2017 15:00:00 -14,4 -16,6 997,2 50 0,0
12.12.2017 14:00:00 -12,4 -14,7 997,6 50 0,0
12.12.2017 13:00:00 -13,2 -14,8 997,9 50 0,0
12.12.2017 12:00:00 -13,4 -15,0 998,5 50 0,0
12.12.2017 11:00:00 -13,7 -15,8 999,0 50 0,0
12.12.2017 10:00:00 -13,2 -15,0 999,3 50 0,0
12.12.2017 09:00:00 -13,2 -14,9 999,4 50 0,0
12.12.2017 08:00:00 -13,1 -14,8 999,8 50 0,0
12.12.2017 07:00:00 -13,2 -15,5 1000,0 50 0,0
12.12.2017 06:00:00 -12,3 -14,3 1000,3 50 0,0
12.12.2017 05:00:00 -13,4 -14,8 1000,7 50 0,0
12.12.2017 04:00:00 -12,6 -14,7 1000,7 50 0,0
12.12.2017 03:00:00 -12,1 -14,4 1000,7 50 0,0
12.12.2017 02:00:00 -12,1 -14,8 1000,8 50 0,0
12.12.2017 01:00:00 -11,8 -13,8 1000,8 50 0,0
12.12.2017 00:00:00 -9,6 -12,7 1000,6 50 0,0
11.12.2017 23:00:00 -10,1 -12,6 1000,7 50 0,0
11.12.2017 22:00:00 -9,4 -11,7 1000,4 50 0,0

tt = Température de l'air
td = dewpoint
ppp = reduced air pressure
vv = visibility
rr = Quantités de précipitations

stations d'obs. à proximité